Regional Weather Roundup
Issued by NWS

Home | Current Version | Previous Version | Graphics & Text | Print | Product List | Glossary Off
Versions: 1 2 3 4 5 6 7 8 9 10 11 12 13 14 15 16 17 18 19 20 21 22 23 24 25 26 27 28 29 30 31 32 33 34 35 36 37 38 39 40 41 42 43 44 45 46 47 48 49 50

000
ASUS43 KLSX 301659
RWRMO

WEATHER SUMMARY FOR MISSOURI
NATIONAL WEATHER SERVICE SPRINGFIELD MO
1200 PM CDT THU OCT 30 2014

NOTE: "FAIR" INDICATES FEW OR NO CLOUDS BELOW 12,000 FEET WITH NO
       SIGNIFICANT WEATHER AND/OR OBSTRUCTIONS TO VISIBILITY.
       CURRENT SKY AND/OR WEATHER CONDITIONS ARE NOT AVAILABLE FOR
       CHILLICOTHE AND FARMINGTON.

MOZ001>031-035>038-043-044-053-054-301800-
...NORTHERN AND WESTERN MISSOURI...

CITY           SKY/WX    TMP DP  RH WIND       PRES   REMARKS
KANSAS CTY INT SUNNY     62  42  47 NW10      30.02S
KANSAS C DTWN  SUNNY     64  41  42 NW10      30.01F
LEE`S SUMMIT   MOSUNNY   61  43  51 W10       30.02S
ST JOSEPH      SUNNY     62  39  42 NW15      30.03S
CHILLICOTHE      N/A     57  42  57 S3        30.02F
KIRKSVILLE     MOSUNNY   54  42  64 SW9       30.03F

$$
MOZ066>068-077>081-088>096-101>105-301800-
...SOUTHWEST MISSOURI...

CITY           SKY/WX    TMP DP  RH WIND       PRES   REMARKS
SPRINGFIELD    PTSUNNY   58  47  66 S14       30.06F
JOPLIN         MOSUNNY   64  45  49 W24G32    30.05F

$$
MOZ032>034-039>042-045>050-055>058-069>072-301800-
...CENTRAL MISSOURI...

CITY           SKY/WX    TMP DP  RH WIND       PRES   REMARKS
COLUMBIA       LGT RAIN  48  40  73 S14       30.06F
JEFFERSON CITY LGT RAIN  50  41  71 SE5       30.08F
ROLLA          CLOUDY    53  36  52 S12       30.08F
SEDALIA        LGT RAIN  53  46  77 S9        30.04F
OSAGE BEACH    CLOUDY    48  43  81 SE3       30.08S

$$
MOZ051-052-059>065-301800-
...EAST CENTRAL MISSOURI...

CITY           SKY/WX    TMP DP  RH WIND       PRES   REMARKS
ST LOUIS INTL  PTSUNNY   56  39  53 S8        30.11F
SPIRIT OF STL  PTSUNNY   55  38  52 S5        30.09F
ST CHARLES     MOSUNNY   54  41  61 S9        30.11F

$$
MOZ072>076-082>087-097>100-106>115-301800-
...SOUTH CENTRAL AND SOUTHEAST MISSOURI...

CITY           SKY/WX    TMP DP  RH WIND       PRES   REMARKS
CAPE GIRARDEAU SUNNY     57  41  55 SW6       30.16F
FARMINGTON     SUNNY     57  39  51 SE14      30.13F
POPLAR BLUFF   SUNNY     59  39  47 S6        30.15F
WEST PLAINS    PTSUNNY   58  35  42 S6        30.13F

$$



USA.gov is the U.S. government's official web portal to all federal, state and local government web resources and services.